Printer-friendly version
Follow the MPC on Twitter Follow the MPC on Facebook The MPC blog
Minor Planet Center

MPEC 2007-K06 : 2007 KE

The following Minor Planet Electronic Circular may be linked-to from your own Web pages, but must not otherwise be redistributed electronically.

A form allowing access to any MPEC is at the bottom of this page.


Read MPEC 2007-K05 Read MPEC 2007-K07


M.P.E.C. 2007-K06                                Issued 2007 May 17, 22:44 UT

     The Minor Planet Electronic Circulars contain information on unusual
         minor planets and routine data on comets.  They are published
   on behalf of Commission 20 of the International Astronomical Union by the
          Minor Planet Center, Smithsonian Astrophysical Observatory,
                          Cambridge, MA 02138, U.S.A.

             Prepared using the Tamkin Foundation Computer Network

                              MPC@CFA.HARVARD.EDU
          URL http://www.cfa.harvard.edu/iau/mpc.html  ISSN 1523-6714

                                    2007 KE

Observations:
     K07K00E* C2007 05 16.34855 16 42 50.32 +28 03 25.9          19.0 V EK006703
     K07K00E  C2007 05 16.35606 16 42 47.73 +28 01 37.6          19.8 V EK006703
     K07K00E  C2007 05 16.36359 16 42 45.10 +27 59 50.7          19.2 V EK006703
     K07K00E  C2007 05 16.37130 16 42 42.15 +27 57 59.2          19.8 V EK006703
     K07K00E  C2007 05 16.37707 16 42 40.17 +27 56 36.4          19.0 V EK006703
     K07K00E  C2007 05 16.37759 16 42 39.99 +27 56 30.0          18.8 V EK006703
     K07K00E  C2007 05 16.37812 16 42 39.74 +27 56 21.8          18.8 V EK006703
     K07K00E  C2007 05 16.37868 16 42 39.60 +27 56 13.6          18.8 V EK006703
     K07K00E  C2007 05 16.44053 16 42 17.77 +27 41 26.9                 EK006703
     K07K00E  C2007 05 16.44108 16 42 17.49 +27 41 19.3                 EK006703
     K07K00E  C2007 05 16.44161 16 42 17.37 +27 41 12.3          19.1 V EK006703
     K07K00E  C2007 05 16.44214 16 42 17.14 +27 41 04.6          19.7 V EK006703
     K07K00E  C2007 05 16.90807 16 39 58.82 +25 51 55.8          19.6 V EK006595
     K07K00E  C2007 05 16.91188 16 39 57.65 +25 51 03.6          19.0 V EK006595
     K07K00E  C2007 05 16.91568 16 39 56.47 +25 50 10.2          19.1 V EK006595
     K07K00E  C2007 05 16.94874 16 39 45.37 +25 42 35.0          19.4 V EK006B03
     K07K00E  C2007 05 16.95282 16 39 44.14 +25 41 38.8          19.0 V EK006B03
     K07K00E  C2007 05 16.95331 16 39 44.19 +25 41 34.9          18.9 R EK006473
     K07K00E  C2007 05 16.96397 16 39 40.71 +25 39 08.7          18.9 R EK006473
     K07K00E  C2007 05 16.97496 16 39 37.14 +25 36 38.8          19.0 R EK006473
     K07K00E  C2007 05 16.98885 16 39 32.46 +25 33 24.9          19.3 V EK006B03
     K07K00E  C2007 05 16.99293 16 39 31.12 +25 32 28.8          19.0 V EK006B03
     K07K00E  C2007 05 16.99701 16 39 29.79 +25 31 32.8          19.2 V EK006B03
     K07K00E  C2007 05 17.00109 16 39 28.41 +25 30 37.0          19.4 V EK006B03
     K07K00E 5C2007 05 17.25813 16 38 17.13 +24 32 32.8          19.4 R EK006673
     K07K00E 5C2007 05 17.26366 16 38 15.41 +24 31 20.0                 EK006673
     K07K00E 5C2007 05 17.26884 16 38 13.76 +24 30 10.7                 EK006673
     K07K00E 5C2007 05 17.27407 16 38 12.17 +24 29 01.1                 EK006673
     K07K00E  C2007 05 17.33859 16 37 51.24 +24 14 41.3          19.7 V EK006G96
     K07K00E  C2007 05 17.34434 16 37 49.33 +24 13 23.0          19.1 R EK006854
     K07K00E  C2007 05 17.34808 16 37 48.23 +24 12 34.6          19.1 R EK006854
     K07K00E  C2007 05 17.35932 16 37 44.70 +24 10 04.6          19.0 R EK006854
     K07K00E  C2007 05 17.37376 16 37 39.97 +24 06 49.5          19.7 V EK006G96
     K07K00E  C2007 05 17.37748 16 37 38.77 +24 06 00.1          19.7 V EK006G96
     K07K00E  C2007 05 17.38120 16 37 37.80 +24 05 10.4          19.3 V EK006G96
     K07K00E  C2007 05 17.42061 16 37 25.46 +23 56 20.7          19.4 V EK006703
     K07K00E  C2007 05 17.42115 16 37 25.28 +23 56 15.1          19.0 V EK006703
     K07K00E  C2007 05 17.42168 16 37 25.14 +23 56 07.0          19.4 V EK006703
     K07K00E  C2007 05 17.42222 16 37 24.92 +23 55 59.1          18.9 V EK006703
     K07K00E  C2007 05 17.89923 16 35 20.61 +22 11 15.6                 EK006J95
     K07K00E  C2007 05 17.90216 16 35 19.77 +22 10 38.4                 EK006J95
     K07K00E  C2007 05 17.90507 16 35 18.98 +22 10 01.0          19.4 R EK006J95

Observer details:
473 Remanzacco.  Observers L. Donato, V. Gonano, E. Guido, A. Lepardo,
    V. Santini, G. Sostero.  0.45-m f/4.4 Newtonian reflector + CCD.
595 Farra d'Isonzo.  Observers L. Bittesini, G. Lombardi, E. Pettarin,
    F. Piani.  Measurer L. Bittesini.  0.40-m f/4.5 reflector + CCD.
673 Table Mountain Observatory, Wrightwood.  Observer J. Young.  0.61-m f/16
    Cassegrain + CCD.
703 Catalina Sky Survey.  Observer R. E. Hill.  Measurers E. C. Beshore,
    A. Boattini, G. J. Garradd, A. R. Gibbs, A. D. Grauer, R. E. Hill,
    R. A. Kowalski, S. M. Larson, R. H. McNaught.  0.68-m Schmidt + CCD.
854 Sabino Canyon Observatory, Tucson.  Observer J. E. McGaha.  0.36-m f/10.0
    Schmidt-Cassegrain + CCD.
B03 Alter Satzberg, Vienna.  Observer M. Pietschnig.  0.35-m f/7
    Schmidt-Cassegrain + CCD.
G96 Mt. Lemmon Survey.  Observers A. D. Grauer, C. A. Nall.  Measurers
    E. C. Beshore, A. Boattini, G. J. Garradd, A. R. Gibbs, A. D. Grauer,
    R. E. Hill, R. A. Kowalski, S. M. Larson, R. H. McNaught.  1.5-m reflector
    + CCD.
J95 Great Shefford.  Observer P. Birtwhistle.  0.40-m f/6.0 Schmidt-Cassegrain
    + CCD.

Orbital elements:
2007 KE                                                  Earth MOID = 0.0390 AU
Epoch 2007 Apr. 10.0 TT = JDT 2454200.5                 MPC
M   8.61009              (2000.0)            P               Q
n   0.45765738     Peri.   78.34765     -0.92522766     -0.34540365
a   1.6676660      Node    81.29109     +0.25562097     -0.87327250
e   0.5202058      Incl.    9.13927     +0.28037777     -0.34364437
P   2.15           H   22.4           G   0.15           U   8
Residuals in seconds of arc
070516 703  1.0-  0.7+    070516 595  1.0+  0.9-    070517 G96  0.0   0.3-
070516 703  0.4+  0.2-    070516 B03  0.7-  0.2-    070517 854  1.2-  1.8-
070516 703  1.3+  0.6+    070516 B03  0.6+  0.4-    070517 854  0.1-  0.1-
070516 703  1.3-  0.6-    070516 473  0.3-  0.1-    070517 854  0.2+  0.5+
070516 703  0.2-  0.8-    070516 473  0.5-  0.2-    070517 G96 (2.1-  0.8-)
070516 703  0.1-  0.2+    070516 473  0.6-  0.5+    070517 G96 (2.5-  0.3-)
070516 703  0.9-  0.4-    070516 B03  0.4+  0.0     070517 G96  0.2+  0.1-
070516 703  0.1-  0.6-    070516 B03  0.1+  0.1-    070517 703  0.1-  1.3-
070516 703  0.3+  1.3-    070516 B03  0.1-  0.2-    070517 703  0.3-  0.3+
070516 703  0.9-  1.0-    070517 B03  0.9-  0.0     070517 703  0.1+  0.7-
070516 703  0.0   0.4-    070517 673  0.1-  1.1-    070517 703  0.7-  1.3-
070516 703  0.6-  0.5-    070517 673  0.0   0.0     070517 J95  0.1-  0.3-
070516 595  0.5-  0.4+    070517 673  0.4-  0.1-    070517 J95  0.4-  0.0
070516 595  0.4+  0.4+    070517 673  0.2+  0.2+    070517 J95  0.1-  0.2-

Ephemeris:
2007 KE                  a,e,i = 1.67, 0.52, 9                   q = 0.8001
Date    TT    R. A. (2000) Decl.     Delta      r     Elong.  Phase     V
2007 05 10    17 42.37   +56 16.7    0.0887   1.028    99.3    75.8    19.8
2007 05 20    16 27.13   +15 15.3    0.114    1.106   143.4    33.0    19.3
2007 05 30    16 05.44   -05 20.8    0.179    1.186   163.0    14.5    19.9
2007 06 09    15 56.94   -14 48.1    0.263    1.267   161.7    14.6    20.8
2007 06 19    15 55.02   -19 49.8    0.360    1.348   153.5    19.6    21.8

Gareth V. Williams           (C) Copyright 2007 MPC           M.P.E.C. 2007-K06

Read MPEC 2007-K05 Read MPEC 2007-K07


MPEC number:

Enter an MPEC number in one of the following forms:

  • 1997-B01 (the full form)
  • J97B01 (the packed version of the full form)
  • B01 (the abbreviated form)

Valid HTML 4.01!